Погода в Кубове

Россия / Республика Карелия     61°57′03″N   37°10′46″E
темп.,
°C
ветер,
м/с
пор.,
м/с
влажн.,
%
обл.,
%
осадки,
мм/ч
давл.,
гПа
погр.,
м
18 июня, пт
пт1800:00+11ююз2472100 0.0 102370
03:00+11юз397575 0.0 1023190
06:00+14юз4127098 0.0 1022426
09:00+20зюз6114599 0.0 1020975
12:00+23зюз6114155 0.0 10191496
15:00+25зюз6113952 0.0 10181947
18:00+24зюз5114256 0.0 10171847
21:00+20зюз4125291 0.0 1016633
19 июня, сб
сб1900:00+17зюз414645 0.0 1016446
03:00+15зюз414693 0.0 1016420
06:00+18зюз515645 0.0 1015653
09:00+22зюз611495 0.0 1015846
12:00+26з594520 0.0 10161477
15:00+25зсз474877 0.0 10171285
18:00+21сз2671100 0.1 1017214
21:00+19с118185 0.6 101811
20 июня, вс
вс2000:00+16в118938 0.0 101912
03:00+14юв22940 0.0 101944
06:00+18ю24790 0.0 1018162
09:00+25юз47501 0.0 1017796
12:00+27юз47460 0.0 10171690
15:00+29зюз59340 0.0 10152712
18:00+28з4104129 0.0 10152222
21:00+23зюз3105785 0.0 1015388
21 июня, пн
пн2100:00+18юз2117829 0.0 1015228
03:00+17юз3108190 0.0 1016211
06:00+20юз31070100 0.0 1016309
09:00+25зюз47565 0.0 1016820
12:00+28з594567 0.0 10171945
15:00+30з4739100 0.0 10172410
18:00+29сз2542100 0.0 10171851
21:00+24вюв116571 0.0 101811
22 июня, вт
вт2200:00+20всв37795 0.0 1019143
03:00+16в25885 0.0 102093
06:00+21юв23740 0.0 1020156
09:00+28ю23477 0.0 1019618
12:00+32ююз24336 0.0 10192563
15:00+33юз342932 0.0 10182795
18:00+31ю46375 0.0 10171572
21:00+25ююв266075 0.0 1017110